TimeEST,TemperatureF,Dew PointF,Humidity,Sea Level PressureIn,VisibilityMPH,Wind Direction,Wind SpeedMPH,Gust SpeedMPH,PrecipitationIn,Events,Conditions,WindDirDegrees,DateUTC
12:53 AM,25.0,21.0,85,29.87,10.0,NNE,11.5,-,N/A,,Scattered Clouds,30,2013-03-06 05:53:00
1:01 AM,24.8,21.2,86,29.84,10.0,NNE,12.7,-,N/A,,Mostly Cloudy,30,2013-03-06 06:01:00
1:53 AM,27.0,21.9,81,29.88,10.0,NE,11.5,-,N/A,,Overcast,40,2013-03-06 06:53:00
2:53 AM,27.0,23.0,85,29.89,10.0,NNE,12.7,19.6,N/A,,Overcast,30,2013-03-06 07:53:00
3:53 AM,28.0,23.0,81,29.90,10.0,NNE,10.4,17.3,N/A,,Overcast,30,2013-03-06 08:53:00
4:53 AM,28.0,23.0,81,29.92,10.0,NNE,12.7,18.4,N/A,,Mostly Cloudy,30,2013-03-06 09:53:00
5:00 AM,28.4,23.0,80,29.89,10.0,NNE,13.8,-,N/A,,Scattered Clouds,20,2013-03-06 10:00:00
5:11 AM,28.4,23.0,80,29.90,10.0,NNE,12.7,-,N/A,,Mostly Cloudy,30,2013-03-06 10:11:00
5:53 AM,28.0,23.0,81,29.96,10.0,NNE,10.4,-,N/A,,Mostly Cloudy,30,2013-03-06 10:53:00
6:53 AM,27.0,23.0,85,29.99,10.0,NE,9.2,-,N/A,,Mostly Cloudy,40,2013-03-06 11:53:00
7:07 AM,26.6,23.0,86,29.96,10.0,NE,10.4,-,N/A,,Mostly Cloudy,40,2013-03-06 12:07:00
7:53 AM,28.0,24.1,85,30.02,10.0,NE,6.9,-,N/A,,Scattered Clouds,40,2013-03-06 12:53:00
8:53 AM,30.0,25.0,82,30.06,10.0,NNE,9.2,-,N/A,,Scattered Clouds,20,2013-03-06 13:53:00
9:38 AM,32.0,24.8,75,30.04,10.0,NNE,8.1,-,N/A,,Mostly Cloudy,30,2013-03-06 14:38:00
9:53 AM,33.1,26.1,75,30.08,10.0,North,9.2,-,N/A,,Mostly Cloudy,10,2013-03-06 14:53:00
10:53 AM,34.0,26.1,73,30.10,10.0,NNE,8.1,-,N/A,,Scattered Clouds,30,2013-03-06 15:53:00
11:53 AM,36.0,26.1,67,30.10,10.0,ENE,8.1,-,N/A,,Scattered Clouds,70,2013-03-06 16:53:00
12:48 PM,37.4,26.6,65,30.09,10.0,Calm,Calm,-,N/A,,Mostly Cloudy,0,2013-03-06 17:48:00
12:53 PM,37.0,26.1,65,30.12,10.0,Calm,Calm,-,N/A,,Mostly Cloudy,0,2013-03-06 17:53:00
1:53 PM,37.9,26.1,62,30.12,10.0,Variable,3.5,-,N/A,,Mostly Cloudy,0,2013-03-06 18:53:00
2:41 PM,37.4,26.6,65,30.09,10.0,Calm,Calm,-,N/A,,Overcast,0,2013-03-06 19:41:00
2:53 PM,37.9,26.1,62,30.12,10.0,NE,4.6,-,N/A,,Overcast,40,2013-03-06 19:53:00
3:53 PM,37.9,26.1,62,30.12,10.0,North,4.6,-,N/A,,Overcast,10,2013-03-06 20:53:00
4:53 PM,37.9,27.0,65,30.14,10.0,North,3.5,-,N/A,,Overcast,360,2013-03-06 21:53:00
5:53 PM,37.0,27.0,67,30.16,10.0,NNW,6.9,-,N/A,,Overcast,330,2013-03-06 22:53:00
6:53 PM,34.0,27.0,75,30.18,10.0,NW,6.9,-,N/A,,Overcast,310,2013-03-06 23:53:00
7:53 PM,33.1,27.0,78,30.19,10.0,NW,6.9,-,N/A,,Mostly Cloudy,310,2013-03-07 00:53:00
8:53 PM,33.1,28.0,82,30.20,10.0,NW,5.8,-,N/A,,Mostly Cloudy,310,2013-03-07 01:53:00
9:53 PM,33.1,28.0,82,30.20,10.0,Calm,Calm,-,N/A,,Overcast,0,2013-03-07 02:53:00
10:53 PM,32.0,28.0,85,30.21,10.0,Calm,Calm,-,N/A,,Overcast,0,2013-03-07 03:53:00
11:53 PM,32.0,28.0,85,30.21,9.0,Calm,Calm,-,0.00,Snow,Light Snow,0,2013-03-07 04:53:00